星链-5798 (STARLINK-5798 )

导读

STARLINK-5798是美国太空探索技术公司星链卫星互联网项目的一员,于2023年3月24日发射升空,属于星链低轨星座组网卫星。它运行在近地轨道,承担全球互联网覆盖服务任务,依托星链大规模星座组网,可提供高速低延迟网络服务,服务民用、商业乃至特殊场景的网络需求。

基本信息
目录编号:
56040
目录名称:
STARLINK-5798
国际标识:
2023-042BG
轨道中心:
EARTH
卫星名称:
星链-5798
卫星全名:
星链-5798 (STARLINK-5798 )
卫星状态:
在轨 (已飞行1260 天)
发射日期:
2023-03-24 UTC
国别 :
美国 (US)
星等 :
--
轨道信息
数据来源 国际轨道数据
星历时间: 2026-09-03T23:18:20+0800
20小时前
查看轨道信息
半长轴: 6861.235km
偏心率: 0.000099
轨道倾角: 43.001°
近地点辐角 239.322°
升交点赤经 106.068°
平近点角 120.753°
近地点: 482.418km
远地点: 483.778km
周期: 94.268分钟
每日圈数: 15.275637
详细信息
固有亮度:
5
最大亮度:
2.5
卫星平台:
Starlink v1.5
覆盖范围:
全球
运营商:
太空探索技术公司
运营商所在国:
美国
制造商(研发单位):
太空探索技术公司
制造商所在国:
美国
使用方式:
暂无
卫星简介
星链(Starlink)计划是由太空探索技术公司(SpaceX)提出的一个巨型低轨卫星互联网星座项目,计划在2019年至2024年间在太空搭建由约1.2万颗卫星组成的“星链”网络,其中1584颗将部署在地球上空550千米处的近地轨道,并从2020年开始工作。该卫星仍在工作。
2D轨道图
3D轨道图
轨道高度分析图
轨道倾角分析图
轨道综合分析图
查看轨道综合分析图
交会数据列表
事件ID 空间交会对象 最接近时刻(TCA) 交会距离 交会风险概率(CRP) 交会风险指数(CRI) 操作
CDM_260906-225405-604006-363521
2026-09-06T
22:54:17+0000
0.292 km
中距离
2.390305E-4 高风险 0.83
CDM_260906-185805-604006-363521
2026-09-06T
18:58:53+0000
0.787 km
远距离
1.743865E-5 中风险 0.6
CDM_260904-092704-379405-604022
HAWK-B (43794)
2026-09-04T
09:27:26+0000
2.174 km
极远距离
2.28248E-6 低风险 0.42
CDM_260906-203305-604006-363521
2026-09-06T
20:33:03+0000
2.473 km
极远距离
6.420125E-7 极低风险 0.31